Powrót do katalogu

STARLINK-34997

AktywnyŁącznośćVLEO
NORAD 65418·PAYLOAD·🇺🇸 United States

Wystrzelony Aug 31, 2025 z Cape Canaveral Space Force Station

Loading…

Następne Przeloty (najbliższe 24 godziny)

TLE

ŚwieżeSource: CelesTrak SupGP

Epoka: Sep 15, 2026, 03:06 UTC

1 65418C 25192Q   26258.12965278 -.00029376  00000+0 -86801-3 0  2588
2 65418  53.1588  70.7229 0001173  83.6137 227.3942 15.34402107    10

Śledź STARLINK-34997 w czasie rzeczywistym z AllMySat

Download on the App Store